Погода в Гуйриа

Венесуэла     10°34′45″N   62°17′45″W
темп.,
°C
ветер,
м/с
пор.,
м/с
влажн.,
%
обл.,
%
осадки,
мм/ч
давл.,
гПа
погр.,
м
18 января, пн
пн1823:00+26всв4578100 0.6 1013684
02:00+26всв237796 0.8 1012472
05:00+26всв357766 0.6 1012611
08:00+26всв357671 0.8 1014620
11:00+26всв257388 0.4 1015770
14:00+26в447656 0.8 1012491
17:00+27всв4575100 0.5 1011794
20:00+26ссв467898 0.5 1012619
19 января, вт
вт1923:00+26св367898 0.0 1014761
02:00+26всв577788 0.1 1013919
05:00+26всв467794 0.0 1013757
08:00+26всв357760 0.0 1015724
11:00+26в567624 0.5 1015828
14:00+27в457416 0.9 1013928
17:00+27св357359 0.1 1011862
20:00+26ссв477731 0.2 1013736
20 января, ср
ср2023:00+26св587866 0.4 1013855
02:00+26всв577469 0.4 10131080
05:00+25всв577030 0.0 10121108
08:00+26св357017 0.0 1014735
11:00+26в23700 0.0 1014524
14:00+26в34710 0.1 1011515
17:00+26ссв23727 0.3 1009458
20:00+26ссв34753 0.3 1011446
21 января, чт
чт2123:00+26в67770 0.0 1012908
02:00+26в67778 0.2 1012884
05:00+26в56770 0.1 1012783
08:00+26в677912 0.8 1014800
11:00+26в67809 0.1 1014750
14:00+27вюв46755 0.1 1011754
17:00+27св23720 0.1 1010307
20:00+27в78780 0.1 1012702
22 января, пт
пт2223:00+26в78770 0.0 1013861
02:00+26в678015 0.1 1013821
05:00+26в578025 0.0 1012709
08:00+26в678116 0.1 1014771
11:00+26в67796 0.0 1015787
14:00+27в36755 0.0 1012737
17:00+27ссв4577100 0.1 1011546
20:00+27всв6780100 0.4 1013829